Tracking 35035 objects as of 16-Aug-2026
HD Live streaming from Space Station
objects crossing your sky now

STARLINK-32714

Track STARLINK-32714 now!
10-day predictions
STARLINK-32714 is classified as:


NORAD ID: 62499
Int'l Code: 2025-003N
Launch date: January 6, 2025
Source: United States (US)
Launch site: AIR FORCE EASTERN TEST RANGE (AFETR)
Your satellite tracking list
Your tracking list is empty




NASA's NSSDC Master Catalog

Two Line Element Set (TLE):
1 62499U 25003N   26227.09602638  .00009712  00000-0  36187-3 0  9990
2 62499  43.0010 114.7312 0001527 269.3845  90.6831 15.27589725 90895
Source of the keplerian elements: AFSPC